Galliano, LA

2:36 PM CDT on July 28, 2017 (GMT -0500)
Galliano

Weather History for KGAO - December, 2013

Change the Weather History Date:

Sunday, December 15, 2013

  Actual Average (KHUM) Record (KHUM)
Temperature  
Mean Temperature 46 °F -  
Max Temperature 52 °F 64 °F 82 °F (2007)
Min Temperature 41 °F 45 °F 24 °F (1952)
Degree Days  
Heating Degree Days 18    
Moisture  
Dew Point 41 °F    
Average Humidity 79    
Maximum Humidity 92    
Minimum Humidity 63    
Precipitation  
Precipitation 0.04 in - - ()
Sea Level Pressure  
Sea Level Pressure 30.22 in    
Wind  
Wind Speed 12 mph (NNW)    
Max Wind Speed 20 mph    
Max Gust Speed 24 mph    
Visibility 10 miles    
Events      
Averages and records for this station are not official NWS values.
T = Trace of Precipitation, MM = Missing Value Source: NWS Daily Summary

Daily Weather History Graph

Daily Weather History Graph

Search for Another Location

Airport or City:

Trip Planner

Search our weather history database for the weather conditions in past years. The results will help you decide how hot, cold, wet, or windy it might be!

Date:

Astronomy

Dec. 15, 2013 Rise Set
Actual Time 6:48 AM CST 5:04 PM CST
Civil Twilight 6:22 AM CST 5:30 PM CST
Nautical Twilight 5:52 AM CST 6:00 PM CST
Astronomical Twilight 5:23 AM CST 6:29 PM CST
Moon 4:04 PM CST (12/15) 5:09 AM CST (12/15)
Length of Visible Light 11h 08m
Length of Day
10h 16m
Waxing Gibbous, 98% of the Moon is Illuminated
Dec 15
Waxing Gibbous
Dec 17
Full
Dec 25
Last Quarter
Jan 1
New
Jan 7
First Quarter

Hourly Weather History & Observations

Time (CST) Temp. Windchill Dew Point Humidity Pressure Visibility Wind Dir Wind Speed Gust Speed Precip Events Conditions
12:15 AM 51.3 °F - 46.9 °F 85% 30.09 in 10.0 mi NW 15.0 mph 24.2 mph N/A   Overcast
12:35 AM 50.9 °F - 46.4 °F 85% 30.09 in 10.0 mi NW 16.1 mph 21.9 mph N/A   Overcast
12:55 AM 49.6 °F - 46.0 °F 87% 30.09 in 10.0 mi NW 12.7 mph 19.6 mph N/A   Scattered Clouds
1:15 AM 49.3 °F - 45.9 °F 88% 30.10 in 10.0 mi NW 13.8 mph 19.6 mph N/A   Clear
1:35 AM 49.1 °F - 45.7 °F 88% 30.10 in 10.0 mi NW 12.7 mph 18.4 mph N/A   Scattered Clouds
1:55 AM 49.3 °F - 45.5 °F 87% 30.10 in 10.0 mi NW 12.7 mph - N/A   Mostly Cloudy
2:15 AM 49.5 °F - 45.3 °F 86% 30.10 in 10.0 mi NW 12.7 mph 16.1 mph N/A   Overcast
2:35 AM 50.2 °F - 45.5 °F 84% 30.11 in 10.0 mi NW 10.4 mph - N/A   Overcast
2:55 AM 50.5 °F - 45.7 °F 83% 30.11 in 10.0 mi NW 13.8 mph - N/A   Overcast
3:15 AM 50.9 °F - 45.9 °F 83% 30.12 in 10.0 mi NNW 12.7 mph 18.4 mph N/A   Overcast
3:35 AM 50.0 °F - 44.1 °F 80% 30.13 in 10.0 mi NW 17.3 mph 24.2 mph N/A   Overcast
3:55 AM 49.1 °F - 42.1 °F 77% 30.13 in 10.0 mi WNW 17.3 mph 23.0 mph N/A   Overcast
4:15 AM 48.7 °F - 42.1 °F 78% 30.13 in 10.0 mi WNW 15.0 mph 18.4 mph N/A   Overcast
4:35 AM 48.7 °F - 42.4 °F 79% 30.14 in 10.0 mi WNW 13.8 mph 19.6 mph N/A   Overcast
4:55 AM 48.6 °F - 42.8 °F 80% 30.14 in 10.0 mi WNW 13.8 mph - N/A   Overcast
5:15 AM 48.6 °F - 43.0 °F 81% 30.15 in 10.0 mi NW 11.5 mph - N/A   Overcast
5:35 AM 48.4 °F - 43.7 °F 84% 30.16 in 10.0 mi NW 11.5 mph 18.4 mph N/A   Overcast
5:55 AM 48.2 °F - 43.2 °F 83% 30.17 in 10.0 mi NW 15.0 mph 18.4 mph N/A   Overcast
6:15 AM 47.7 °F - 42.3 °F 82% 30.17 in 10.0 mi NNW 12.7 mph - N/A   Overcast
6:35 AM 47.3 °F - 41.0 °F 79% 30.18 in 10.0 mi NNW 17.3 mph 24.2 mph N/A   Overcast
6:55 AM 46.9 °F - 40.3 °F 78% 30.19 in 10.0 mi NW 15.0 mph 24.2 mph N/A   Overcast
7:15 AM 46.8 °F - 40.6 °F 79% 30.20 in 10.0 mi NW 16.1 mph 19.6 mph N/A   Overcast
7:35 AM 46.8 °F - 40.5 °F 79% 30.21 in 10.0 mi NNW 13.8 mph 19.6 mph N/A   Overcast
7:55 AM 46.8 °F - 40.1 °F 78% 30.22 in 10.0 mi NNW 12.7 mph 20.7 mph N/A   Overcast
8:15 AM 46.8 °F - 39.4 °F 75% 30.23 in 10.0 mi NNW 15.0 mph 19.6 mph N/A   Overcast
8:35 AM 46.9 °F - 39.7 °F 76% 30.23 in 10.0 mi NNW 16.1 mph - N/A   Overcast
8:55 AM 47.1 °F - 39.9 °F 76% 30.24 in 10.0 mi NNW 12.7 mph 18.4 mph N/A   Overcast
9:15 AM 47.3 °F - 40.1 °F 76% 30.25 in 10.0 mi NNW 13.8 mph 19.6 mph N/A   Overcast
9:35 AM 48.2 °F - 40.3 °F 74% 30.25 in 10.0 mi North 19.6 mph 24.2 mph N/A   Overcast
9:55 AM 48.4 °F - 39.9 °F 73% 30.26 in 10.0 mi NNW 17.3 mph - N/A   Overcast
10:15 AM 48.7 °F - 40.6 °F 74% 30.26 in 10.0 mi North 16.1 mph 21.9 mph N/A   Overcast
10:35 AM 48.6 °F - 40.3 °F 73% 30.26 in 10.0 mi North 15.0 mph 21.9 mph N/A   Overcast
10:55 AM 48.6 °F - 40.5 °F 74% 30.26 in 10.0 mi NNW 15.0 mph 18.4 mph N/A   Overcast
11:15 AM 48.6 °F - 40.1 °F 73% 30.26 in 10.0 mi NNW 10.4 mph - N/A   Overcast
11:35 AM 49.6 °F - 40.6 °F 71% 30.26 in 10.0 mi NNW 11.5 mph - N/A   Mostly Cloudy
11:55 AM 50.0 °F - 40.5 °F 70% 30.25 in 10.0 mi North 9.2 mph 16.1 mph N/A   Mostly Cloudy
12:15 PM 49.3 °F - 39.6 °F 69% 30.24 in 10.0 mi NNW 12.7 mph - N/A   Scattered Clouds
12:35 PM 51.4 °F - 40.3 °F 66% 30.24 in 10.0 mi NNW 8.1 mph 11.5 mph N/A   Clear
12:55 PM 50.9 °F - 40.3 °F 67% 30.24 in 10.0 mi North 13.8 mph - N/A   Scattered Clouds
1:15 PM 50.2 °F - 39.4 °F 66% 30.23 in 10.0 mi North 11.5 mph - N/A   Clear
1:35 PM 50.9 °F - 39.6 °F 65% 30.22 in 10.0 mi North 10.4 mph 17.3 mph N/A   Clear
1:55 PM 52.0 °F - 40.6 °F 65% 30.22 in 10.0 mi North 9.2 mph - N/A   Clear
2:15 PM 52.2 °F - 40.3 °F 64% 30.22 in 10.0 mi North 12.7 mph - N/A   Clear
2:35 PM 52.3 °F - 40.3 °F 64% 30.22 in 10.0 mi NNW 4.6 mph - N/A   Clear
2:55 PM 52.2 °F - 39.7 °F 63% 30.22 in 10.0 mi NNE 11.5 mph - N/A   Clear
3:15 PM 52.5 °F - 40.3 °F 63% 30.22 in 10.0 mi North 10.4 mph - N/A   Clear
3:35 PM 52.3 °F - 40.3 °F 64% 30.22 in 10.0 mi North 8.1 mph - N/A   Clear
3:55 PM 52.0 °F - 40.1 °F 64% 30.22 in 10.0 mi North 8.1 mph - N/A   Clear
4:15 PM 51.6 °F - 39.7 °F 64% 30.23 in 10.0 mi North 5.8 mph - N/A   Clear
4:35 PM 50.9 °F - 40.1 °F 67% 30.23 in 10.0 mi North 5.8 mph - N/A   Clear
4:55 PM 49.1 °F - 40.5 °F 72% 30.23 in 10.0 mi North 4.6 mph - N/A   Clear
5:15 PM 47.3 °F - 40.5 °F 77% 30.24 in 10.0 mi North 6.9 mph - N/A   Clear
5:35 PM 46.0 °F 42.5 °F 40.1 °F 80% 30.25 in 10.0 mi North 6.9 mph - N/A   Clear
5:55 PM 46.0 °F 41.9 °F 40.3 °F 80% 30.25 in 10.0 mi North 8.1 mph - N/A   Clear
6:15 PM 45.3 °F 41.6 °F 40.1 °F 82% 30.26 in 10.0 mi North 6.9 mph - N/A   Clear
6:35 PM 44.8 °F 41.0 °F 40.1 °F 84% 30.26 in 10.0 mi North 6.9 mph - N/A   Clear
6:55 PM 43.9 °F 39.9 °F 39.9 °F 86% 30.27 in 10.0 mi North 6.9 mph - N/A   Clear
7:15 PM 44.1 °F 40.8 °F 40.1 °F 86% 30.28 in 10.0 mi North 5.8 mph - N/A   Clear
7:35 PM 44.6 °F 41.4 °F 40.1 °F 84% 30.28 in 10.0 mi North 5.8 mph - N/A   Clear
7:55 PM 43.3 °F 39.9 °F 39.4 °F 86% 30.28 in 10.0 mi North 5.8 mph - N/A   Clear
8:15 PM 44.1 °F 41.5 °F 40.1 °F 86% 30.29 in 10.0 mi NNW 4.6 mph - N/A   Clear
8:35 PM 43.5 °F 41.9 °F 39.6 °F 86% 30.29 in 10.0 mi North 3.5 mph - N/A   Clear
8:55 PM 44.1 °F 41.5 °F 40.1 °F 86% 30.30 in 10.0 mi North 4.6 mph - N/A   Clear
9:15 PM 42.8 °F 40.1 °F 39.4 °F 88% 30.31 in 10.0 mi North 4.6 mph - N/A   Clear
9:35 PM 42.1 °F 40.2 °F 39.4 °F 90% 30.31 in 10.0 mi North 3.5 mph - N/A   Clear
9:55 PM 42.4 °F 40.7 °F 39.7 °F 90% 30.31 in 10.0 mi North 3.5 mph - N/A   Clear
10:15 PM 42.6 °F 39.0 °F 39.4 °F 88% 30.31 in 10.0 mi North 5.8 mph - N/A   Clear
10:35 PM 42.3 °F 38.6 °F 39.4 °F 90% 30.31 in 10.0 mi North 5.8 mph - N/A   Clear
10:55 PM 42.3 °F 38.6 °F 39.4 °F 90% 30.31 in 10.0 mi North 5.8 mph - N/A   Clear
11:15 PM 41.9 °F 38.2 °F 39.2 °F 90% 30.31 in 10.0 mi North 5.8 mph - N/A   Clear
11:35 PM 41.2 °F 37.3 °F 39.0 °F 92% 30.31 in 10.0 mi North 5.8 mph - N/A   Clear
11:55 PM 41.4 °F 39.4 °F 39.2 °F 92% 30.30 in 10.0 mi NNE 3.5 mph - N/A   Clear